Overview Statistics Trail Chart Weather Telemetry Raw packets
 

This is the latest recevied weather packets stored in our database for station/object W6MAF. If no packets are shown the sender has not sent any weather packets the latest 10 day(s).

<< 56 57 58 59 60 61 62 >>
Time Temp. Humidity Pressure Rain* Wind** Luminosity Snow
1788269133 14.44° C 38% - 0 mm 6.71 m/s, 205° - -
1788268833 14.44° C 42% - 0 mm 4.47 m/s, 200° - -
1788268534 13.89° C 43% - 0 mm 7.15 m/s, 188° - -
1788268237 13.89° C 42% - 0 mm 6.71 m/s, 188° - -
1788267641 14.44° C 42% - 0 mm 6.26 m/s, 211° - -
1788267349 14.44° C 41% - 0 mm 6.26 m/s, 205° - -
1788267043 14.44° C 40% - 0 mm 5.81 m/s, 217° - -
1788266745 14.44° C 40% - 0 mm 5.81 m/s, 214° - -
1788266466 13.89° C 41% - 0 mm 5.36 m/s, 208° - -
1788266150 13.89° C 41% - 0 mm 5.81 m/s, 211° - -
1788265852 13.89° C 40% - 0 mm 4.92 m/s, 204° - -
1788265554 13.89° C 43% - 0 mm 4.92 m/s, 177° - -
1788265253 14.44° C 42% - 0 mm 4.47 m/s, 219° - -
1788264956 14.44° C 40% - 0 mm 3.58 m/s, 222° - -
1788264658 15° C 39% - 0 mm 3.58 m/s, 207° - -
1788264360 15° C 36% - 0 mm 2.68 m/s, 226° - -
1788264062 15.56° C 34% - 0 mm 3.13 m/s, 211° - -
1788263765 16.11° C 31% - 0 mm 2.68 m/s, 228° - -
1788263464 16.11° C 24% - 0 mm 0.89 m/s, 197° - -
1788263166 16.11° C 24% - 0 mm 2.68 m/s, 181° - -
1788262868 16.67° C 26% - 0 mm 0 m/s - -
1788262571 16.67° C 23% - 0 mm 0 m/s - -
1788262273 16.67° C 22% - 0 mm 0 m/s - -
1788261975 16.67° C 23% - 0 mm 0.89 m/s, 148° - -
1788261674 16.11° C 24% - 0 mm 4.02 m/s, 170° - -

* Rain latest hour (hover to see other rain measurements)
** Current wind speed in m/s (hover to see current wind gust speed)